Miscellaneous Local Product
Issued by NWS North Platte, NE

Home | Current Version | Previous Version | Graphics & Text | Print | Product List | Glossary On
Versions: 1 2 3 4 5 6 7 8 9 10 11 12 13 14 15 16 17 18 19 20 21 22 23 24 25 26 27 28 29 30 31 32 33 34 35 36 37 38 39 40 41 42 43 44 45 46 47 48 49 50
000
AXUS43 KLBF 190710
MISLBF


WESTERN AND NORTH CENTRAL NEBRASKA HOURLY WEATHER ROUNDUP
NATIONAL WEATHER SERVICE NORTH PLATTE NE
200 AM CDT FRI SEP 19 2014

***STATIONS NOT REPORTING VARIABLES SUCH AS SKY/WEATHER OR
PRESSURE ARE PROVIDED BY THE NEBRASKA DEPARTMENT OF
ROADS...RAWS...AND APRS NETWORKS...AND ARE NOT UNDER
NATIONAL WEATHER SERVICE QUALITY CONTROL***

...OBSERVATIONS IN AND NEAR THE EASTERN PANHANDLE OF NEBRASKA...

CITY           SKY/WX    TMP DP  RH WIND       PRES   REMARKS
PINE RIDGE     CLEAR     67  61  81 S20G28    29.77S
CHADRON        CLEAR     69  60  73 W7G17     29.74F
ALLIANCE       CLEAR     60  59  96 S9        29.84F
SIDNEY         CLEAR     61  53  75 SW13      29.91F
WHITECLAY        N/A     65  60  82 S12         N/A
RUSHVILLE        N/A     61  59  94 SW12        N/A
CRESCENT LAKE    N/A     61  61  99 S7G15       N/A
LISCO            N/A     66  61  85 NE12        N/A
BIG SPRINGS      N/A     63  62  95 CALM        N/A
$$

...OBSERVATIONS IN NORTH CENTRAL NEBRASKA...

CITY           SKY/WX    TMP DP  RH WIND       PRES   REMARKS
VALENTINE      PTCLDY    64  62  93 S7        29.80F
THEDFORD       PTCLDY    62  61  96 SE6       29.86F
AINSWORTH      CLOUDY    65  64  94 S15       29.82F
O`NEILL        CLOUDY    67  65  92 S16G23    29.85F
ORD            CLOUDY    66  63  90 S16       29.87S
BROKEN BOW     CLEAR     63  61  93 S9        29.87F
SPRINGVIEW       N/A     67  63  88 CALM        N/A
ROSE             N/A     68  67  99 E14         N/A
NEWPORT          N/A     67  65  94 S16         N/A
COMSTOCK         N/A     71  70  96 S20         N/A
CHAMBERS         N/A     66  64  94 S7G18       N/A
$$

...OBSERVATIONS IN SOUTHWEST NEBRASKA AND FAR NORTHEAST COLORADO...

CITY           SKY/WX    TMP DP  RH WIND       PRES   REMARKS
WRAY           FAIR      67  56  69 SW9       29.90F
HOLYOKE        FAIR      59  55  88 S5        29.90S
IMPERIAL       CLEAR     59  57  93 SE6       29.88F
OGALLALA       MOCLDY    61  61  97 CALM      29.88F FOG
NORTH PLATTE   FOG       59  58  96 SE7       29.87F VSB 1/2
MCCOOK         FOG       59  58  96 E7        29.88F VSB<1/4
LEXINGTON      CLEAR     64  64  97 SE13      29.88F
PAXTON           N/A     59  57  94 CALM        N/A
SUTHERLAND       N/A     53  51  93 CALM        N/A
BRADY            N/A     59  57  94 CALM        N/A
GOTHENBURG       N/A     61  58  90 CALM        N/A
CALLAWAY         N/A     62  61  97 S8          N/A
$$

...SOME WEATHER OBSERVATIONS FROM AROUND THE REGION...

CITY           SKY/WX    TMP DP  RH WIND       PRES   REMARKS
DENVER         CLEAR     69  37  30 S17       29.97S
LARAMIE        MOCLDY    53  37  54 SW6       30.07S
CHEYENNE       CLEAR     60  41  49 W8        30.00R
SCOTTSBLUFF    CLEAR     62  59  90 E8        29.85F
RAPID CITY     CLOUDY    71  54  54 N21G29    29.76S
PIERRE         MOCLDY    64  60  87 SE14      29.68F
WINNER         FAIR      68  62  81 S25G38    29.73F
SIOUX FALLS    CLOUDY    62  55  77 S21G29    29.89F
OMAHA          CLEAR     61  57  87 SE10      29.99S
GRAND ISLAND   CLOUDY    65  63  93 S18G26    29.92F FOG
KANSAS CITY    CLEAR     60  59  96 SE7       30.02S
WICHITA        CLEAR     66  62  87 SE7       29.97F
HAYS           CLEAR     68  57  68 S13       29.94F
LIBERAL        CLEAR     63  55  77 SW8       30.02S
GOODLAND       CLEAR     68  57  68 SW15G23   29.94S
$$



USA.gov is the U.S. government's official web portal to all federal, state and local government web resources and services.